Weather History for Sheridan, WY

Change the Weather History Date:

Monday, December 24, 2012

  Actual Average Record
Temperature  
Mean Temperature 10 °F 22 °F  
Max Temperature 17 °F 35 °F 61 °F (1922)
Min Temperature 3 °F 10 °F -37 °F (1983)
Degree Days  
Heating Degree Days 55 43  
Month to date heating degree days 898 1009  
Since 1 July heating degree days 2582 2887  
Cooling Degree Days 0 0  
Month to date cooling degree days 0 0  
Year to date cooling degree days 664 419  
Moisture  
Dew Point 6 °F    
Average Humidity 83    
Maximum Humidity 92    
Minimum Humidity 73    
Precipitation  
Precipitation 0.02 in 0.01 in 0.35 in (1955)
Month to date precipitation 0.33 0.44  
Year to date precipitation 9.36 14.04  
Sea Level Pressure  
Sea Level Pressure 30.13 in    
Wind  
Wind Speed 10 mph (NW)    
Max Wind Speed 21 mph    
Max Gust Speed 24 mph    
Visibility 6 miles    
Events Snow    
T = Trace of Precipitation, MM = Missing Value Source: NWS Daily Summary

Daily Weather History Graph

Daily Weather History Graph

Search for Another Location

Airport:

Trip Planner

Search our weather history database for the weather conditions in past years. The results will help you decide how hot, cold, wet, or windy it might be!

Date:

Astronomy

Dec. 24, 2012 Rise Set
Actual Time 7:43 AM MST 4:31 PM MST
Civil Twilight 7:10 AM MST 5:05 PM MST
Nautical Twilight 6:32 AM MST 5:42 PM MST
Astronomical Twilight 5:57 AM MST 6:18 PM MST
Moon 2:04 PM MST (12/24) 4:21 AM MST (12/24)
Length of Visible Light 9h 55m
Length of Day
8h 48m
Waxing Gibbous, 89% of the Moon is Illuminated
Dec 24
Waxing Gibbous
Dec 28
Full
Jan 4
Last Quarter
Jan 11
New
Jan 18
First Quarter

Hourly Weather History & Observations

Time (MST) Temp. Windchill Dew Point Humidity Pressure Visibility Wind Dir Wind Speed Gust Speed Precip Events Conditions
12:53 AM 15.1 °F - 10.9 °F 84% 29.96 in 10.0 mi Calm Calm - N/A   Mostly Cloudy
1:53 AM 16.0 °F 7.4 °F 12.0 °F 84% 29.95 in 10.0 mi NNW 5.8 mph - N/A   Overcast
2:53 AM 16.0 °F - 12.0 °F 84% 29.94 in 10.0 mi Calm Calm - N/A   Scattered Clouds
3:53 AM 16.0 °F - 12.0 °F 84% 29.93 in 10.0 mi Calm Calm - N/A   Overcast
4:53 AM 16.0 °F 6.3 °F 12.0 °F 84% 29.97 in 10.0 mi NNW 6.9 mph - N/A   Overcast
5:53 AM 16.0 °F 10.4 °F 12.0 °F 84% 29.99 in 10.0 mi NNW 3.5 mph - N/A   Overcast
6:53 AM 12.9 °F 5.2 °F 10.0 °F 88% 30.01 in 10.0 mi NW 4.6 mph - N/A   Clear
7:53 AM 12.9 °F 3.8 °F 10.0 °F 88% 30.01 in 10.0 mi NW 5.8 mph - N/A   Clear
8:53 AM 15.1 °F 9.4 °F 12.0 °F 88% 30.05 in 10.0 mi NNE 3.5 mph - N/A   Overcast
9:50 AM 15.8 °F 10.2 °F 12.2 °F 86% 29.90 in 10.0 mi North 3.5 mph - N/A   Overcast
9:53 AM 16.0 °F - 12.0 °F 84% 30.09 in 10.0 mi Calm Calm - N/A   Overcast
10:53 AM 16.0 °F 3.6 °F 12.0 °F 84% 30.10 in 10.0 mi NW 10.4 mph - N/A   Overcast
11:53 AM 15.1 °F 1.1 °F 10.0 °F 80% 30.10 in 10.0 mi WNW 12.7 mph - N/A   Overcast
12:53 PM 12.9 °F -3.9 °F 7.0 °F 77% 30.11 in 10.0 mi WNW 17.3 mph - N/A   Overcast
1:26 PM 12.2 °F -4.8 °F 6.8 °F 79% 29.93 in 1.8 mi WNW 17.3 mph - 0.00 in Snow Light Snow
1:33 PM 12.2 °F -4.8 °F 6.8 °F 79% 29.94 in 3.0 mi WNW 17.3 mph - 0.00 in Snow Light Snow
1:53 PM 12.0 °F -5.1 °F 7.0 °F 80% 30.14 in 9.0 mi WNW 17.3 mph - 0.00 in   Overcast
2:53 PM 10.9 °F -5.9 °F 5.0 °F 77% 30.17 in 2.5 mi WNW 16.1 mph - 0.00 in Snow Light Snow
3:37 PM 10.4 °F -6.0 °F 5.0 °F 79% 30.00 in 3.0 mi WNW 15.0 mph - 0.00 in Snow Light Snow
3:53 PM 10.0 °F -6.5 °F 3.9 °F 76% 30.22 in 3.0 mi WNW 15.0 mph - 0.00 in Snow Light Snow
4:10 PM 8.6 °F -8.3 °F 3.2 °F 79% 30.01 in 2.0 mi WNW 15.0 mph - 0.00 in Snow Light Snow
4:28 PM 8.6 °F -8.9 °F 3.2 °F 79% 30.03 in 2.0 mi WNW 16.1 mph - 0.00 in Snow Light Snow
4:53 PM 8.1 °F -10.2 °F 3.0 °F 80% 30.26 in 1.8 mi WNW 17.3 mph - 0.01 in Snow Light Snow
5:12 PM 8.6 °F -8.3 °F 3.2 °F 79% 30.06 in 2.0 mi WNW 15.0 mph - 0.00 in Snow Light Snow
5:36 PM 8.6 °F -8.9 °F 3.2 °F 79% 30.07 in 3.0 mi WNW 16.1 mph - 0.00 in Snow Light Snow
5:53 PM 8.1 °F -10.2 °F 1.9 °F 76% 30.30 in 2.5 mi WNW 17.3 mph - 0.00 in Snow Light Snow
6:17 PM 8.6 °F -7.7 °F 1.4 °F 73% 30.10 in 3.0 mi WNW 13.8 mph - 0.00 in Snow Light Snow
6:53 PM 7.0 °F -9.1 °F 1.9 °F 80% 30.34 in 4.0 mi WNW 12.7 mph - 0.00 in Snow Light Snow
7:53 PM 7.0 °F -8.3 °F 1.0 °F 77% 30.38 in 4.0 mi NW 11.5 mph - 0.00 in Snow Light Snow
8:01 PM 6.8 °F -9.3 °F 1.4 °F 79% 30.15 in 4.0 mi NW 12.7 mph - 0.01 in Snow Light Snow
8:53 PM 6.1 °F -10.2 °F -0.0 °F 76% 30.39 in 4.0 mi NW 12.7 mph - 0.01 in Snow Light Snow
9:53 PM 5.0 °F -11.6 °F -0.0 °F 80% 30.41 in 4.0 mi NW 12.7 mph - 0.00 in Snow Light Snow
10:53 PM 3.9 °F -14.3 °F -2.0 °F 76% 30.44 in 4.0 mi NW 15.0 mph - 0.00 in Snow Light Snow
11:03 PM 3.2 °F -13.9 °F -2.2 °F 78% 30.21 in 5.0 mi NW 12.7 mph - 0.00 in Snow Light Snow
11:53 PM 3.9 °F -12.2 °F -2.0 °F 76% 30.45 in 9.0 mi NW 11.5 mph - 0.00 in   Overcast